User: anonymous   Login
Location: Chantarel
(45.1638°N, 1.7873°E)
Time: 23:11:57
(UTC+00:00)
Language:

SL-08 RB Rocket - Orbit

View from above orbital plane
View from above orbital plane
View from above satellite
View from above satellite

Ground track
Ground track

The orbit data is extracted from the following two-line orbital elements,

1 26387U 00033D   21125.32523272  .00000071  00000-0  20158-4 0  9997
2 26387  97.7778 157.9932 0027517 133.6201 237.1226 14.68698147373692
Epoch (UTC): 05 May 2021 07:48:20
Eccentricity: 0.0027517
inclination: 97.7778°
perigee height: 646 km
apogee height: 684 km
right ascension of ascending node: 157.9932°
argument of perigee: 133.6201°
revolutions per day: 14.68698147
mean anomaly at epoch: 237.1226°
orbit number at epoch: 37369

The dashed part of the orbit path shows where the satellite is in the earth's shadow,  

DLR